Index of /20260504/WXO-DD/model_rdps/10km/06/059
Name Last modified Size Description
Parent Directory -
20260504T06Z_MSC_RDPS_AbsoluteVorticity_IsbL-0250_RLatLon0.09_PT059H.grib2 2026-05-04 08:57 595K
20260504T06Z_MSC_RDPS_AbsoluteVorticity_IsbL-0500_RLatLon0.09_PT059H.grib2 2026-05-04 08:57 682K
20260504T06Z_MSC_RDPS_AbsoluteVorticity_IsbL-0700_RLatLon0.09_PT059H.grib2 2026-05-04 08:57 609K
20260504T06Z_MSC_RDPS_AbsoluteVorticity_IsbL-0850_RLatLon0.09_PT059H.grib2 2026-05-04 08:57 789K
20260504T06Z_MSC_RDPS_AirTemp_AGL-120m_RLatLon0.09_PT059H.grib2 2026-05-04 08:57 381K
20260504T06Z_MSC_RDPS_AirTemp_AGL-2m_RLatLon0.09_PT059H.grib2 2026-05-04 08:57 633K
20260504T06Z_MSC_RDPS_AirTemp_AGL-40m_RLatLon0.09_PT059H.grib2 2026-05-04 08:57 406K
20260504T06Z_MSC_RDPS_AirTemp_AGL-80m_RLatLon0.09_PT059H.grib2 2026-05-04 08:57 385K
20260504T06Z_MSC_RDPS_AirTemp_IsbL-0001_RLatLon0.09_PT059H.grib2 2026-05-04 08:57 325K
20260504T06Z_MSC_RDPS_AirTemp_IsbL-0005_RLatLon0.09_PT059H.grib2 2026-05-04 08:57 289K
20260504T06Z_MSC_RDPS_AirTemp_IsbL-0010_RLatLon0.09_PT059H.grib2 2026-05-04 08:57 390K
20260504T06Z_MSC_RDPS_AirTemp_IsbL-0020_RLatLon0.09_PT059H.grib2 2026-05-04 08:57 321K
20260504T06Z_MSC_RDPS_AirTemp_IsbL-0030_RLatLon0.09_PT059H.grib2 2026-05-04 08:57 338K
20260504T06Z_MSC_RDPS_AirTemp_IsbL-0050_RLatLon0.09_PT059H.grib2 2026-05-04 08:57 314K
20260504T06Z_MSC_RDPS_AirTemp_IsbL-0100_RLatLon0.09_PT059H.grib2 2026-05-04 08:57 418K
20260504T06Z_MSC_RDPS_AirTemp_IsbL-0150_RLatLon0.09_PT059H.grib2 2026-05-04 08:57 408K
20260504T06Z_MSC_RDPS_AirTemp_IsbL-0175_RLatLon0.09_PT059H.grib2 2026-05-04 08:57 402K
20260504T06Z_MSC_RDPS_AirTemp_IsbL-0200_RLatLon0.09_PT059H.grib2 2026-05-04 08:57 408K
20260504T06Z_MSC_RDPS_AirTemp_IsbL-0225_RLatLon0.09_PT059H.grib2 2026-05-04 08:57 410K
20260504T06Z_MSC_RDPS_AirTemp_IsbL-0250_RLatLon0.09_PT059H.grib2 2026-05-04 08:57 416K
20260504T06Z_MSC_RDPS_AirTemp_IsbL-0275_RLatLon0.09_PT059H.grib2 2026-05-04 08:57 396K
20260504T06Z_MSC_RDPS_AirTemp_IsbL-0300_RLatLon0.09_PT059H.grib2 2026-05-04 08:57 405K
20260504T06Z_MSC_RDPS_AirTemp_IsbL-0350_RLatLon0.09_PT059H.grib2 2026-05-04 08:57 422K
20260504T06Z_MSC_RDPS_AirTemp_IsbL-0400_RLatLon0.09_PT059H.grib2 2026-05-04 08:57 426K
20260504T06Z_MSC_RDPS_AirTemp_IsbL-0450_RLatLon0.09_PT059H.grib2 2026-05-04 08:57 431K
20260504T06Z_MSC_RDPS_AirTemp_IsbL-0500_RLatLon0.09_PT059H.grib2 2026-05-04 08:57 438K
20260504T06Z_MSC_RDPS_AirTemp_IsbL-0550_RLatLon0.09_PT059H.grib2 2026-05-04 08:57 454K
20260504T06Z_MSC_RDPS_AirTemp_IsbL-0600_RLatLon0.09_PT059H.grib2 2026-05-04 08:57 435K
20260504T06Z_MSC_RDPS_AirTemp_IsbL-0650_RLatLon0.09_PT059H.grib2 2026-05-04 08:57 454K
20260504T06Z_MSC_RDPS_AirTemp_IsbL-0700_RLatLon0.09_PT059H.grib2 2026-05-04 08:57 481K
20260504T06Z_MSC_RDPS_AirTemp_IsbL-0750_RLatLon0.09_PT059H.grib2 2026-05-04 08:57 522K
20260504T06Z_MSC_RDPS_AirTemp_IsbL-0800_RLatLon0.09_PT059H.grib2 2026-05-04 08:57 577K
20260504T06Z_MSC_RDPS_AirTemp_IsbL-0850_RLatLon0.09_PT059H.grib2 2026-05-04 08:57 512K
20260504T06Z_MSC_RDPS_AirTemp_IsbL-0875_RLatLon0.09_PT059H.grib2 2026-05-04 08:57 532K
20260504T06Z_MSC_RDPS_AirTemp_IsbL-0900_RLatLon0.09_PT059H.grib2 2026-05-04 08:57 541K
20260504T06Z_MSC_RDPS_AirTemp_IsbL-0925_RLatLon0.09_PT059H.grib2 2026-05-04 08:57 538K
20260504T06Z_MSC_RDPS_AirTemp_IsbL-0950_RLatLon0.09_PT059H.grib2 2026-05-04 08:57 535K
20260504T06Z_MSC_RDPS_AirTemp_IsbL-0970_RLatLon0.09_PT059H.grib2 2026-05-04 08:57 530K
20260504T06Z_MSC_RDPS_AirTemp_IsbL-0985_RLatLon0.09_PT059H.grib2 2026-05-04 08:57 520K
20260504T06Z_MSC_RDPS_AirTemp_IsbL-1000_RLatLon0.09_PT059H.grib2 2026-05-04 08:57 501K
20260504T06Z_MSC_RDPS_AirTemp_IsbL-1015_RLatLon0.09_PT059H.grib2 2026-05-04 08:57 505K
20260504T06Z_MSC_RDPS_Albedo_Sfc_RLatLon0.09_PT059H.grib2 2026-05-04 08:57 156K
20260504T06Z_MSC_RDPS_CAPE_Sfc_RLatLon0.09_PT059H.grib2 2026-05-04 08:57 1.9M
20260504T06Z_MSC_RDPS_CIN_Sfc_RLatLon0.09_PT059H.grib2 2026-05-04 08:57 1.2M
20260504T06Z_MSC_RDPS_CloudWater_EAtm_RLatLon0.09_PT059H.grib2 2026-05-04 08:57 221K
20260504T06Z_MSC_RDPS_ConvectivePrecip-Accum_Sfc_RLatLon0.09_PT059H.grib2 2026-05-04 08:57 1.1M
20260504T06Z_MSC_RDPS_DewPointDepression_AGL-2m_RLatLon0.09_PT059H.grib2 2026-05-04 08:57 427K
20260504T06Z_MSC_RDPS_DewPointDepression_IsbL-0001_RLatLon0.09_PT059H.grib2 2026-05-04 08:57 193
20260504T06Z_MSC_RDPS_DewPointDepression_IsbL-0005_RLatLon0.09_PT059H.grib2 2026-05-04 08:57 193
20260504T06Z_MSC_RDPS_DewPointDepression_IsbL-0010_RLatLon0.09_PT059H.grib2 2026-05-04 08:57 193
20260504T06Z_MSC_RDPS_DewPointDepression_IsbL-0020_RLatLon0.09_PT059H.grib2 2026-05-04 08:57 193
20260504T06Z_MSC_RDPS_DewPointDepression_IsbL-0030_RLatLon0.09_PT059H.grib2 2026-05-04 08:57 193
20260504T06Z_MSC_RDPS_DewPointDepression_IsbL-0050_RLatLon0.09_PT059H.grib2 2026-05-04 08:57 78K
20260504T06Z_MSC_RDPS_DewPointDepression_IsbL-0100_RLatLon0.09_PT059H.grib2 2026-05-04 08:57 110K
20260504T06Z_MSC_RDPS_DewPointDepression_IsbL-0150_RLatLon0.09_PT059H.grib2 2026-05-04 08:57 137K
20260504T06Z_MSC_RDPS_DewPointDepression_IsbL-0175_RLatLon0.09_PT059H.grib2 2026-05-04 08:57 184K
20260504T06Z_MSC_RDPS_DewPointDepression_IsbL-0200_RLatLon0.09_PT059H.grib2 2026-05-04 08:57 223K
20260504T06Z_MSC_RDPS_DewPointDepression_IsbL-0225_RLatLon0.09_PT059H.grib2 2026-05-04 08:57 255K
20260504T06Z_MSC_RDPS_DewPointDepression_IsbL-0250_RLatLon0.09_PT059H.grib2 2026-05-04 08:57 295K
20260504T06Z_MSC_RDPS_DewPointDepression_IsbL-0275_RLatLon0.09_PT059H.grib2 2026-05-04 08:57 306K
20260504T06Z_MSC_RDPS_DewPointDepression_IsbL-0300_RLatLon0.09_PT059H.grib2 2026-05-04 08:57 326K
20260504T06Z_MSC_RDPS_DewPointDepression_IsbL-0350_RLatLon0.09_PT059H.grib2 2026-05-04 08:57 333K
20260504T06Z_MSC_RDPS_DewPointDepression_IsbL-0400_RLatLon0.09_PT059H.grib2 2026-05-04 08:57 341K
20260504T06Z_MSC_RDPS_DewPointDepression_IsbL-0450_RLatLon0.09_PT059H.grib2 2026-05-04 08:57 341K
20260504T06Z_MSC_RDPS_DewPointDepression_IsbL-0500_RLatLon0.09_PT059H.grib2 2026-05-04 08:57 342K
20260504T06Z_MSC_RDPS_DewPointDepression_IsbL-0550_RLatLon0.09_PT059H.grib2 2026-05-04 08:57 352K
20260504T06Z_MSC_RDPS_DewPointDepression_IsbL-0600_RLatLon0.09_PT059H.grib2 2026-05-04 08:57 361K
20260504T06Z_MSC_RDPS_DewPointDepression_IsbL-0650_RLatLon0.09_PT059H.grib2 2026-05-04 08:57 368K
20260504T06Z_MSC_RDPS_DewPointDepression_IsbL-0700_RLatLon0.09_PT059H.grib2 2026-05-04 08:57 380K
20260504T06Z_MSC_RDPS_DewPointDepression_IsbL-0750_RLatLon0.09_PT059H.grib2 2026-05-04 08:57 405K
20260504T06Z_MSC_RDPS_DewPointDepression_IsbL-0800_RLatLon0.09_PT059H.grib2 2026-05-04 08:57 444K
20260504T06Z_MSC_RDPS_DewPointDepression_IsbL-0850_RLatLon0.09_PT059H.grib2 2026-05-04 08:57 486K
20260504T06Z_MSC_RDPS_DewPointDepression_IsbL-0875_RLatLon0.09_PT059H.grib2 2026-05-04 08:57 485K
20260504T06Z_MSC_RDPS_DewPointDepression_IsbL-0900_RLatLon0.09_PT059H.grib2 2026-05-04 08:57 474K
20260504T06Z_MSC_RDPS_DewPointDepression_IsbL-0925_RLatLon0.09_PT059H.grib2 2026-05-04 08:57 460K
20260504T06Z_MSC_RDPS_DewPointDepression_IsbL-0950_RLatLon0.09_PT059H.grib2 2026-05-04 08:57 450K
20260504T06Z_MSC_RDPS_DewPointDepression_IsbL-0970_RLatLon0.09_PT059H.grib2 2026-05-04 08:57 444K
20260504T06Z_MSC_RDPS_DewPointDepression_IsbL-0985_RLatLon0.09_PT059H.grib2 2026-05-04 08:57 446K
20260504T06Z_MSC_RDPS_DewPointDepression_IsbL-1000_RLatLon0.09_PT059H.grib2 2026-05-04 08:57 442K
20260504T06Z_MSC_RDPS_DewPointDepression_IsbL-1015_RLatLon0.09_PT059H.grib2 2026-05-04 08:57 433K
20260504T06Z_MSC_RDPS_DewPoint_AGL-2m_RLatLon0.09_PT059H.grib2 2026-05-04 08:57 404K
20260504T06Z_MSC_RDPS_DownwardLongwaveRadiationFlux-Accum_Sfc_RLatLon0.09_PT059H.grib2 2026-05-04 08:57 408K
20260504T06Z_MSC_RDPS_DownwardShortwaveRadiationFlux-Accum_NTAtm_RLatLon0.09_PT059H.grib2 2026-05-04 08:57 101K
20260504T06Z_MSC_RDPS_DownwardShortwaveRadiationFlux-Accum_Sfc_RLatLon0.09_PT059H.grib2 2026-05-04 08:57 600K
20260504T06Z_MSC_RDPS_FreezingRain-Accum1h_Sfc_RLatLon0.09_PT059H.grib2 2026-05-04 08:57 25K
20260504T06Z_MSC_RDPS_FreezingRain-Accum_Sfc_RLatLon0.09_PT059H.grib2 2026-05-04 08:57 180K
20260504T06Z_MSC_RDPS_GeopotentialHeight_IsbL-0001_RLatLon0.09_PT059H.grib2 2026-05-04 08:57 352K
20260504T06Z_MSC_RDPS_GeopotentialHeight_IsbL-0005_RLatLon0.09_PT059H.grib2 2026-05-04 08:57 307K
20260504T06Z_MSC_RDPS_GeopotentialHeight_IsbL-0010_RLatLon0.09_PT059H.grib2 2026-05-04 08:57 308K
20260504T06Z_MSC_RDPS_GeopotentialHeight_IsbL-0020_RLatLon0.09_PT059H.grib2 2026-05-04 08:57 308K
20260504T06Z_MSC_RDPS_GeopotentialHeight_IsbL-0030_RLatLon0.09_PT059H.grib2 2026-05-04 08:57 408K
20260504T06Z_MSC_RDPS_GeopotentialHeight_IsbL-0050_RLatLon0.09_PT059H.grib2 2026-05-04 08:57 310K
20260504T06Z_MSC_RDPS_GeopotentialHeight_IsbL-0100_RLatLon0.09_PT059H.grib2 2026-05-04 08:57 284K
20260504T06Z_MSC_RDPS_GeopotentialHeight_IsbL-0150_RLatLon0.09_PT059H.grib2 2026-05-04 08:57 227K
20260504T06Z_MSC_RDPS_GeopotentialHeight_IsbL-0175_RLatLon0.09_PT059H.grib2 2026-05-04 08:57 231K
20260504T06Z_MSC_RDPS_GeopotentialHeight_IsbL-0200_RLatLon0.09_PT059H.grib2 2026-05-04 08:57 234K
20260504T06Z_MSC_RDPS_GeopotentialHeight_IsbL-0225_RLatLon0.09_PT059H.grib2 2026-05-04 08:57 236K
20260504T06Z_MSC_RDPS_GeopotentialHeight_IsbL-0250_RLatLon0.09_PT059H.grib2 2026-05-04 08:57 237K
20260504T06Z_MSC_RDPS_GeopotentialHeight_IsbL-0275_RLatLon0.09_PT059H.grib2 2026-05-04 08:57 236K
20260504T06Z_MSC_RDPS_GeopotentialHeight_IsbL-0300_RLatLon0.09_PT059H.grib2 2026-05-04 08:57 235K
20260504T06Z_MSC_RDPS_GeopotentialHeight_IsbL-0350_RLatLon0.09_PT059H.grib2 2026-05-04 08:57 231K
20260504T06Z_MSC_RDPS_GeopotentialHeight_IsbL-0400_RLatLon0.09_PT059H.grib2 2026-05-04 08:57 227K
20260504T06Z_MSC_RDPS_GeopotentialHeight_IsbL-0450_RLatLon0.09_PT059H.grib2 2026-05-04 08:57 296K
20260504T06Z_MSC_RDPS_GeopotentialHeight_IsbL-0500_RLatLon0.09_PT059H.grib2 2026-05-04 08:57 291K
20260504T06Z_MSC_RDPS_GeopotentialHeight_IsbL-0550_RLatLon0.09_PT059H.grib2 2026-05-04 08:57 287K
20260504T06Z_MSC_RDPS_GeopotentialHeight_IsbL-0600_RLatLon0.09_PT059H.grib2 2026-05-04 08:57 284K
20260504T06Z_MSC_RDPS_GeopotentialHeight_IsbL-0650_RLatLon0.09_PT059H.grib2 2026-05-04 08:57 255K
20260504T06Z_MSC_RDPS_GeopotentialHeight_IsbL-0700_RLatLon0.09_PT059H.grib2 2026-05-04 08:57 337K
20260504T06Z_MSC_RDPS_GeopotentialHeight_IsbL-0750_RLatLon0.09_PT059H.grib2 2026-05-04 08:57 341K
20260504T06Z_MSC_RDPS_GeopotentialHeight_IsbL-0800_RLatLon0.09_PT059H.grib2 2026-05-04 08:57 349K
20260504T06Z_MSC_RDPS_GeopotentialHeight_IsbL-0850_RLatLon0.09_PT059H.grib2 2026-05-04 08:57 394K
20260504T06Z_MSC_RDPS_GeopotentialHeight_IsbL-0875_RLatLon0.09_PT059H.grib2 2026-05-04 08:57 397K
20260504T06Z_MSC_RDPS_GeopotentialHeight_IsbL-0900_RLatLon0.09_PT059H.grib2 2026-05-04 08:57 401K
20260504T06Z_MSC_RDPS_GeopotentialHeight_IsbL-0925_RLatLon0.09_PT059H.grib2 2026-05-04 08:57 404K
20260504T06Z_MSC_RDPS_GeopotentialHeight_IsbL-0950_RLatLon0.09_PT059H.grib2 2026-05-04 08:57 406K
20260504T06Z_MSC_RDPS_GeopotentialHeight_IsbL-0970_RLatLon0.09_PT059H.grib2 2026-05-04 08:57 411K
20260504T06Z_MSC_RDPS_GeopotentialHeight_IsbL-0985_RLatLon0.09_PT059H.grib2 2026-05-04 08:57 388K
20260504T06Z_MSC_RDPS_GeopotentialHeight_IsbL-1000_RLatLon0.09_PT059H.grib2 2026-05-04 08:57 401K
20260504T06Z_MSC_RDPS_GeopotentialHeight_IsbL-1015_RLatLon0.09_PT059H.grib2 2026-05-04 08:57 417K
20260504T06Z_MSC_RDPS_Humidex_Sfc_RLatLon0.09_PT059H.grib2 2026-05-04 08:57 2.4M
20260504T06Z_MSC_RDPS_IcePellets-Accum1h_Sfc_RLatLon0.09_PT059H.grib2 2026-05-04 08:57 5.8K
20260504T06Z_MSC_RDPS_IcePellets-Accum_Sfc_RLatLon0.09_PT059H.grib2 2026-05-04 08:57 39K
20260504T06Z_MSC_RDPS_KIndex_Sfc_RLatLon0.09_PT059H.grib2 2026-05-04 08:57 2.5M
20260504T06Z_MSC_RDPS_LatentHeatNetFlux_Sfc_RLatLon0.09_PT059H.grib2 2026-05-04 08:57 312K
20260504T06Z_MSC_RDPS_LiftedIndex-MU-VT_IsbL-0500_RLatLon0.09_PT059H.grib2 2026-05-04 08:57 2.4M
20260504T06Z_MSC_RDPS_NetLongwaveRadiationFlux-Accum_Sfc_RLatLon0.09_PT059H.grib2 2026-05-04 08:57 586K
20260504T06Z_MSC_RDPS_NetShortwaveRadiationFlux-Accum_Sfc_RLatLon0.09_PT059H.grib2 2026-05-04 08:57 597K
20260504T06Z_MSC_RDPS_PlanetaryBoundaryLayerHeight_Sfc_RLatLon0.09_PT059H.grib2 2026-05-04 08:57 1.0M
20260504T06Z_MSC_RDPS_Precip-Accum1h_Sfc_RLatLon0.09_PT059H.grib2 2026-05-04 08:57 1.2M
20260504T06Z_MSC_RDPS_Precip-Accum_Sfc_RLatLon0.09_PT059H.grib2 2026-05-04 08:57 2.2M
20260504T06Z_MSC_RDPS_PrecipRate_Sfc_RLatLon0.09_PT059H.grib2 2026-05-04 08:57 192K
20260504T06Z_MSC_RDPS_PrecipType-Instant_Sfc_RLatLon0.09_PT059H.grib2 2026-05-04 08:57 587K
20260504T06Z_MSC_RDPS_Pressure-Trend3h_Sfc_RLatLon0.09_PT059H.grib2 2026-05-04 08:57 1.2M
20260504T06Z_MSC_RDPS_Pressure_MSL_RLatLon0.09_PT059H.grib2 2026-05-04 08:57 298K
20260504T06Z_MSC_RDPS_Pressure_PVU-1.5_RLatLon0.09_PT059H.grib2 2026-05-04 08:57 2.3M
20260504T06Z_MSC_RDPS_Pressure_PVU-1_RLatLon0.09_PT059H.grib2 2026-05-04 08:57 2.4M
20260504T06Z_MSC_RDPS_Pressure_PVU-2_RLatLon0.09_PT059H.grib2 2026-05-04 08:57 2.4M
20260504T06Z_MSC_RDPS_Pressure_Sfc_RLatLon0.09_PT059H.grib2 2026-05-04 08:57 499K
20260504T06Z_MSC_RDPS_RadiativeTemp_Sfc_RLatLon0.09_PT059H.grib2 2026-05-04 08:57 324K
20260504T06Z_MSC_RDPS_Rain-Accum1h_Sfc_RLatLon0.09_PT059H.grib2 2026-05-04 08:57 628K
20260504T06Z_MSC_RDPS_Rain-Accum_Sfc_RLatLon0.09_PT059H.grib2 2026-05-04 08:57 1.8M
20260504T06Z_MSC_RDPS_RelativeHumidity_AGL-2m_RLatLon0.09_PT059H.grib2 2026-05-04 08:57 1.0M
20260504T06Z_MSC_RDPS_RelativeHumidity_IsbL-0010_RLatLon0.09_PT059H.grib2 2026-05-04 08:57 682K
20260504T06Z_MSC_RDPS_RelativeHumidity_IsbL-0020_RLatLon0.09_PT059H.grib2 2026-05-04 08:57 649K
20260504T06Z_MSC_RDPS_RelativeHumidity_IsbL-0030_RLatLon0.09_PT059H.grib2 2026-05-04 08:57 602K
20260504T06Z_MSC_RDPS_RelativeHumidity_IsbL-0050_RLatLon0.09_PT059H.grib2 2026-05-04 08:57 359K
20260504T06Z_MSC_RDPS_RelativeHumidity_IsbL-0100_RLatLon0.09_PT059H.grib2 2026-05-04 08:57 267K
20260504T06Z_MSC_RDPS_RelativeHumidity_IsbL-0150_RLatLon0.09_PT059H.grib2 2026-05-04 08:57 409K
20260504T06Z_MSC_RDPS_RelativeHumidity_IsbL-0175_RLatLon0.09_PT059H.grib2 2026-05-04 08:57 473K
20260504T06Z_MSC_RDPS_RelativeHumidity_IsbL-0200_RLatLon0.09_PT059H.grib2 2026-05-04 08:57 546K
20260504T06Z_MSC_RDPS_RelativeHumidity_IsbL-0225_RLatLon0.09_PT059H.grib2 2026-05-04 08:57 611K
20260504T06Z_MSC_RDPS_RelativeHumidity_IsbL-0250_RLatLon0.09_PT059H.grib2 2026-05-04 08:57 676K
20260504T06Z_MSC_RDPS_RelativeHumidity_IsbL-0275_RLatLon0.09_PT059H.grib2 2026-05-04 08:57 703K
20260504T06Z_MSC_RDPS_RelativeHumidity_IsbL-0300_RLatLon0.09_PT059H.grib2 2026-05-04 08:57 753K
20260504T06Z_MSC_RDPS_RelativeHumidity_IsbL-0350_RLatLon0.09_PT059H.grib2 2026-05-04 08:57 780K
20260504T06Z_MSC_RDPS_RelativeHumidity_IsbL-0400_RLatLon0.09_PT059H.grib2 2026-05-04 08:57 792K
20260504T06Z_MSC_RDPS_RelativeHumidity_IsbL-0450_RLatLon0.09_PT059H.grib2 2026-05-04 08:57 791K
20260504T06Z_MSC_RDPS_RelativeHumidity_IsbL-0500_RLatLon0.09_PT059H.grib2 2026-05-04 08:57 788K
20260504T06Z_MSC_RDPS_RelativeHumidity_IsbL-0550_RLatLon0.09_PT059H.grib2 2026-05-04 08:57 801K
20260504T06Z_MSC_RDPS_RelativeHumidity_IsbL-0600_RLatLon0.09_PT059H.grib2 2026-05-04 08:57 828K
20260504T06Z_MSC_RDPS_RelativeHumidity_IsbL-0650_RLatLon0.09_PT059H.grib2 2026-05-04 08:57 833K
20260504T06Z_MSC_RDPS_RelativeHumidity_IsbL-0700_RLatLon0.09_PT059H.grib2 2026-05-04 08:57 861K
20260504T06Z_MSC_RDPS_RelativeHumidity_IsbL-0750_RLatLon0.09_PT059H.grib2 2026-05-04 08:57 907K
20260504T06Z_MSC_RDPS_RelativeHumidity_IsbL-0800_RLatLon0.09_PT059H.grib2 2026-05-04 08:57 1.0M
20260504T06Z_MSC_RDPS_RelativeHumidity_IsbL-0850_RLatLon0.09_PT059H.grib2 2026-05-04 08:57 1.0M
20260504T06Z_MSC_RDPS_RelativeHumidity_IsbL-0875_RLatLon0.09_PT059H.grib2 2026-05-04 08:57 1.1M
20260504T06Z_MSC_RDPS_RelativeHumidity_IsbL-0900_RLatLon0.09_PT059H.grib2 2026-05-04 08:57 1.1M
20260504T06Z_MSC_RDPS_RelativeHumidity_IsbL-0925_RLatLon0.09_PT059H.grib2 2026-05-04 08:57 1.1M
20260504T06Z_MSC_RDPS_RelativeHumidity_IsbL-0950_RLatLon0.09_PT059H.grib2 2026-05-04 08:57 1.1M
20260504T06Z_MSC_RDPS_RelativeHumidity_IsbL-0970_RLatLon0.09_PT059H.grib2 2026-05-04 08:57 1.1M
20260504T06Z_MSC_RDPS_RelativeHumidity_IsbL-0985_RLatLon0.09_PT059H.grib2 2026-05-04 08:57 1.1M
20260504T06Z_MSC_RDPS_RelativeHumidity_IsbL-1000_RLatLon0.09_PT059H.grib2 2026-05-04 08:57 1.0M
20260504T06Z_MSC_RDPS_RelativeHumidity_IsbL-1015_RLatLon0.09_PT059H.grib2 2026-05-04 08:57 1.0M
20260504T06Z_MSC_RDPS_Runoff-Accum_Sfc_RLatLon0.09_PT059H.grib2 2026-05-04 08:57 58K
20260504T06Z_MSC_RDPS_SWEATIndex_Sfc_RLatLon0.09_PT059H.grib2 2026-05-04 08:57 2.4M
20260504T06Z_MSC_RDPS_SeeingIndex_EAtm_RLatLon0.09_PT059H.grib2 2026-05-04 08:57 1.0M
20260504T06Z_MSC_RDPS_SensibleHeatNetFlux_Sfc_RLatLon0.09_PT059H.grib2 2026-05-04 08:57 366K
20260504T06Z_MSC_RDPS_ShowalterIndex_IsbL-0500_RLatLon0.09_PT059H.grib2 2026-05-04 08:57 2.6M
20260504T06Z_MSC_RDPS_SkyTransparencyIndex_EAtm_RLatLon0.09_PT059H.grib2 2026-05-04 08:57 699K
20260504T06Z_MSC_RDPS_Snow-Accum1h_Sfc_RLatLon0.09_PT059H.grib2 2026-05-04 08:57 535K
20260504T06Z_MSC_RDPS_Snow-Accum_Sfc_RLatLon0.09_PT059H.grib2 2026-05-04 08:57 772K
20260504T06Z_MSC_RDPS_SnowDensity_Sfc_RLatLon0.09_PT059H.grib2 2026-05-04 08:57 176K
20260504T06Z_MSC_RDPS_SnowDepth_Sfc_RLatLon0.09_PT059H.grib2 2026-05-04 08:57 653K
20260504T06Z_MSC_RDPS_SoilTemp_DBS-0to10cm_RLatLon0.09_PT059H.grib2 2026-05-04 08:57 240K
20260504T06Z_MSC_RDPS_SoilTemp_Sfc_RLatLon0.09_PT059H.grib2 2026-05-04 08:57 295K
20260504T06Z_MSC_RDPS_SoilVolumetricIceContent_Sfc_RLatLon0.09_PT059H.grib2 2026-05-04 08:57 151K
20260504T06Z_MSC_RDPS_SoilVolumetricWaterContent_DBS-0to10cm_RLatLon0.09_PT059H.grib2 2026-05-04 08:57 280K
20260504T06Z_MSC_RDPS_SoilVolumetricWaterContent_DBS-0to1cm_RLatLon0.09_PT059H.grib2 2026-05-04 08:57 343K
20260504T06Z_MSC_RDPS_SpecificHumidity_AGL-120m_RLatLon0.09_PT059H.grib2 2026-05-04 08:57 506K
20260504T06Z_MSC_RDPS_SpecificHumidity_AGL-2m_RLatLon0.09_PT059H.grib2 2026-05-04 08:57 676K
20260504T06Z_MSC_RDPS_SpecificHumidity_AGL-40m_RLatLon0.09_PT059H.grib2 2026-05-04 08:57 510K
20260504T06Z_MSC_RDPS_SpecificHumidity_AGL-80m_RLatLon0.09_PT059H.grib2 2026-05-04 08:57 507K
20260504T06Z_MSC_RDPS_SpecificHumidity_IsbL-0001_RLatLon0.09_PT059H.grib2 2026-05-04 08:57 381K
20260504T06Z_MSC_RDPS_SpecificHumidity_IsbL-0005_RLatLon0.09_PT059H.grib2 2026-05-04 08:57 370K
20260504T06Z_MSC_RDPS_SpecificHumidity_IsbL-0010_RLatLon0.09_PT059H.grib2 2026-05-04 08:57 401K
20260504T06Z_MSC_RDPS_SpecificHumidity_IsbL-0020_RLatLon0.09_PT059H.grib2 2026-05-04 08:57 380K
20260504T06Z_MSC_RDPS_SpecificHumidity_IsbL-0030_RLatLon0.09_PT059H.grib2 2026-05-04 08:57 368K
20260504T06Z_MSC_RDPS_SpecificHumidity_IsbL-0050_RLatLon0.09_PT059H.grib2 2026-05-04 08:57 476K
20260504T06Z_MSC_RDPS_SpecificHumidity_IsbL-0100_RLatLon0.09_PT059H.grib2 2026-05-04 08:57 414K
20260504T06Z_MSC_RDPS_SpecificHumidity_IsbL-0150_RLatLon0.09_PT059H.grib2 2026-05-04 08:57 454K
20260504T06Z_MSC_RDPS_SpecificHumidity_IsbL-0175_RLatLon0.09_PT059H.grib2 2026-05-04 08:57 442K
20260504T06Z_MSC_RDPS_SpecificHumidity_IsbL-0200_RLatLon0.09_PT059H.grib2 2026-05-04 08:57 450K
20260504T06Z_MSC_RDPS_SpecificHumidity_IsbL-0225_RLatLon0.09_PT059H.grib2 2026-05-04 08:57 448K
20260504T06Z_MSC_RDPS_SpecificHumidity_IsbL-0250_RLatLon0.09_PT059H.grib2 2026-05-04 08:57 551K
20260504T06Z_MSC_RDPS_SpecificHumidity_IsbL-0275_RLatLon0.09_PT059H.grib2 2026-05-04 08:57 469K
20260504T06Z_MSC_RDPS_SpecificHumidity_IsbL-0300_RLatLon0.09_PT059H.grib2 2026-05-04 08:57 547K
20260504T06Z_MSC_RDPS_SpecificHumidity_IsbL-0350_RLatLon0.09_PT059H.grib2 2026-05-04 08:57 544K
20260504T06Z_MSC_RDPS_SpecificHumidity_IsbL-0400_RLatLon0.09_PT059H.grib2 2026-05-04 08:57 522K
20260504T06Z_MSC_RDPS_SpecificHumidity_IsbL-0450_RLatLon0.09_PT059H.grib2 2026-05-04 08:57 568K
20260504T06Z_MSC_RDPS_SpecificHumidity_IsbL-0500_RLatLon0.09_PT059H.grib2 2026-05-04 08:57 497K
20260504T06Z_MSC_RDPS_SpecificHumidity_IsbL-0550_RLatLon0.09_PT059H.grib2 2026-05-04 08:57 567K
20260504T06Z_MSC_RDPS_SpecificHumidity_IsbL-0600_RLatLon0.09_PT059H.grib2 2026-05-04 08:57 618K
20260504T06Z_MSC_RDPS_SpecificHumidity_IsbL-0650_RLatLon0.09_PT059H.grib2 2026-05-04 08:57 536K
20260504T06Z_MSC_RDPS_SpecificHumidity_IsbL-0700_RLatLon0.09_PT059H.grib2 2026-05-04 08:57 580K
20260504T06Z_MSC_RDPS_SpecificHumidity_IsbL-0750_RLatLon0.09_PT059H.grib2 2026-05-04 08:57 638K
20260504T06Z_MSC_RDPS_SpecificHumidity_IsbL-0800_RLatLon0.09_PT059H.grib2 2026-05-04 08:57 730K
20260504T06Z_MSC_RDPS_SpecificHumidity_IsbL-0850_RLatLon0.09_PT059H.grib2 2026-05-04 08:57 818K
20260504T06Z_MSC_RDPS_SpecificHumidity_IsbL-0875_RLatLon0.09_PT059H.grib2 2026-05-04 08:57 844K
20260504T06Z_MSC_RDPS_SpecificHumidity_IsbL-0900_RLatLon0.09_PT059H.grib2 2026-05-04 08:57 716K
20260504T06Z_MSC_RDPS_SpecificHumidity_IsbL-0925_RLatLon0.09_PT059H.grib2 2026-05-04 08:57 717K
20260504T06Z_MSC_RDPS_SpecificHumidity_IsbL-0950_RLatLon0.09_PT059H.grib2 2026-05-04 08:57 715K
20260504T06Z_MSC_RDPS_SpecificHumidity_IsbL-0970_RLatLon0.09_PT059H.grib2 2026-05-04 08:57 708K
20260504T06Z_MSC_RDPS_SpecificHumidity_IsbL-0985_RLatLon0.09_PT059H.grib2 2026-05-04 08:57 706K
20260504T06Z_MSC_RDPS_SpecificHumidity_IsbL-1000_RLatLon0.09_PT059H.grib2 2026-05-04 08:57 703K
20260504T06Z_MSC_RDPS_SpecificHumidity_IsbL-1015_RLatLon0.09_PT059H.grib2 2026-05-04 08:57 693K
20260504T06Z_MSC_RDPS_SpecificHumidity_Sfc_RLatLon0.09_PT059H.grib2 2026-05-04 08:57 344K
20260504T06Z_MSC_RDPS_StormRelativeHelicity_EtaL-10000_RLatLon0.09_PT059H.grib2 2026-05-04 08:57 1.1M
20260504T06Z_MSC_RDPS_StormSeverityIndex_EtaL-10000_RLatLon0.09_PT059H.grib2 2026-05-04 08:57 1.2M
20260504T06Z_MSC_RDPS_Thickness_IsbL-0850to0700_RLatLon0.09_PT059H.grib2 2026-05-04 08:57 177K
20260504T06Z_MSC_RDPS_Thickness_IsbL-1000to0500_RLatLon0.09_PT059H.grib2 2026-05-04 08:57 198K
20260504T06Z_MSC_RDPS_Thickness_IsbL-1000to0850_RLatLon0.09_PT059H.grib2 2026-05-04 08:57 265K
20260504T06Z_MSC_RDPS_TotalCloudCover_Sfc_RLatLon0.09_PT059H.grib2 2026-05-04 08:57 652K
20260504T06Z_MSC_RDPS_TotalTotalsIndex_Sfc_RLatLon0.09_PT059H.grib2 2026-05-04 08:57 2.6M
20260504T06Z_MSC_RDPS_UVIndex-ClearSky_Sfc_RLatLon0.09_PT059H.grib2 2026-05-04 08:57 225K
20260504T06Z_MSC_RDPS_UVIndex_Sfc_RLatLon0.09_PT059H.grib2 2026-05-04 08:57 529K
20260504T06Z_MSC_RDPS_UpwardLongwaveRadiationFlux_NTAtm_RLatLon0.09_PT059H.grib2 2026-05-04 08:57 488K
20260504T06Z_MSC_RDPS_UpwardShortwaveRadiationFlux_NTAtm_RLatLon0.09_PT059H.grib2 2026-05-04 08:57 561K
20260504T06Z_MSC_RDPS_VerticalVelocity_IsbL-0250_RLatLon0.09_PT059H.grib2 2026-05-04 08:57 578K
20260504T06Z_MSC_RDPS_VerticalVelocity_IsbL-0500_RLatLon0.09_PT059H.grib2 2026-05-04 08:57 682K
20260504T06Z_MSC_RDPS_VerticalVelocity_IsbL-0700_RLatLon0.09_PT059H.grib2 2026-05-04 08:57 591K
20260504T06Z_MSC_RDPS_VerticalVelocity_IsbL-0850_RLatLon0.09_PT059H.grib2 2026-05-04 08:57 701K
20260504T06Z_MSC_RDPS_VerticalWindShear_EtaL-6500_RLatLon0.09_PT059H.grib2 2026-05-04 08:57 1.2M
20260504T06Z_MSC_RDPS_WindChill_Sfc_RLatLon0.09_PT059H.grib2 2026-05-04 08:57 1.2M
20260504T06Z_MSC_RDPS_WindDir_AGL-10m_RLatLon0.09_PT059H.grib2 2026-05-04 08:57 969K
20260504T06Z_MSC_RDPS_WindDir_AGL-120m_RLatLon0.09_PT059H.grib2 2026-05-04 08:57 615K
20260504T06Z_MSC_RDPS_WindDir_AGL-40m_RLatLon0.09_PT059H.grib2 2026-05-04 08:57 635K
20260504T06Z_MSC_RDPS_WindDir_AGL-80m_RLatLon0.09_PT059H.grib2 2026-05-04 08:57 623K
20260504T06Z_MSC_RDPS_WindDir_IsbL-0001_RLatLon0.09_PT059H.grib2 2026-05-04 08:57 299K
20260504T06Z_MSC_RDPS_WindDir_IsbL-0005_RLatLon0.09_PT059H.grib2 2026-05-04 08:57 389K
20260504T06Z_MSC_RDPS_WindDir_IsbL-0010_RLatLon0.09_PT059H.grib2 2026-05-04 08:57 383K
20260504T06Z_MSC_RDPS_WindDir_IsbL-0020_RLatLon0.09_PT059H.grib2 2026-05-04 08:57 409K
20260504T06Z_MSC_RDPS_WindDir_IsbL-0030_RLatLon0.09_PT059H.grib2 2026-05-04 08:57 417K
20260504T06Z_MSC_RDPS_WindDir_IsbL-0050_RLatLon0.09_PT059H.grib2 2026-05-04 08:57 438K
20260504T06Z_MSC_RDPS_WindDir_IsbL-0100_RLatLon0.09_PT059H.grib2 2026-05-04 08:57 414K
20260504T06Z_MSC_RDPS_WindDir_IsbL-0150_RLatLon0.09_PT059H.grib2 2026-05-04 08:57 415K
20260504T06Z_MSC_RDPS_WindDir_IsbL-0175_RLatLon0.09_PT059H.grib2 2026-05-04 08:57 436K
20260504T06Z_MSC_RDPS_WindDir_IsbL-0200_RLatLon0.09_PT059H.grib2 2026-05-04 08:57 449K
20260504T06Z_MSC_RDPS_WindDir_IsbL-0225_RLatLon0.09_PT059H.grib2 2026-05-04 08:57 453K
20260504T06Z_MSC_RDPS_WindDir_IsbL-0250_RLatLon0.09_PT059H.grib2 2026-05-04 08:57 449K
20260504T06Z_MSC_RDPS_WindDir_IsbL-0275_RLatLon0.09_PT059H.grib2 2026-05-04 08:57 464K
20260504T06Z_MSC_RDPS_WindDir_IsbL-0300_RLatLon0.09_PT059H.grib2 2026-05-04 08:57 468K
20260504T06Z_MSC_RDPS_WindDir_IsbL-0350_RLatLon0.09_PT059H.grib2 2026-05-04 08:57 497K
20260504T06Z_MSC_RDPS_WindDir_IsbL-0400_RLatLon0.09_PT059H.grib2 2026-05-04 08:57 518K
20260504T06Z_MSC_RDPS_WindDir_IsbL-0450_RLatLon0.09_PT059H.grib2 2026-05-04 08:57 528K
20260504T06Z_MSC_RDPS_WindDir_IsbL-0500_RLatLon0.09_PT059H.grib2 2026-05-04 08:57 537K
20260504T06Z_MSC_RDPS_WindDir_IsbL-0550_RLatLon0.09_PT059H.grib2 2026-05-04 08:57 552K
20260504T06Z_MSC_RDPS_WindDir_IsbL-0600_RLatLon0.09_PT059H.grib2 2026-05-04 08:57 576K
20260504T06Z_MSC_RDPS_WindDir_IsbL-0650_RLatLon0.09_PT059H.grib2 2026-05-04 08:57 618K
20260504T06Z_MSC_RDPS_WindDir_IsbL-0700_RLatLon0.09_PT059H.grib2 2026-05-04 08:57 663K
20260504T06Z_MSC_RDPS_WindDir_IsbL-0750_RLatLon0.09_PT059H.grib2 2026-05-04 08:57 707K
20260504T06Z_MSC_RDPS_WindDir_IsbL-0800_RLatLon0.09_PT059H.grib2 2026-05-04 08:57 775K
20260504T06Z_MSC_RDPS_WindDir_IsbL-0850_RLatLon0.09_PT059H.grib2 2026-05-04 08:57 853K
20260504T06Z_MSC_RDPS_WindDir_IsbL-0875_RLatLon0.09_PT059H.grib2 2026-05-04 08:57 884K
20260504T06Z_MSC_RDPS_WindDir_IsbL-0900_RLatLon0.09_PT059H.grib2 2026-05-04 08:57 902K
20260504T06Z_MSC_RDPS_WindDir_IsbL-0925_RLatLon0.09_PT059H.grib2 2026-05-04 08:57 914K
20260504T06Z_MSC_RDPS_WindDir_IsbL-0950_RLatLon0.09_PT059H.grib2 2026-05-04 08:57 915K
20260504T06Z_MSC_RDPS_WindDir_IsbL-0970_RLatLon0.09_PT059H.grib2 2026-05-04 08:57 919K
20260504T06Z_MSC_RDPS_WindDir_IsbL-0985_RLatLon0.09_PT059H.grib2 2026-05-04 08:57 929K
20260504T06Z_MSC_RDPS_WindDir_IsbL-1000_RLatLon0.09_PT059H.grib2 2026-05-04 08:57 942K
20260504T06Z_MSC_RDPS_WindDir_IsbL-1015_RLatLon0.09_PT059H.grib2 2026-05-04 08:57 960K
20260504T06Z_MSC_RDPS_WindGust-Max_AGL-10m_RLatLon0.09_PT059H.grib2 2026-05-04 08:57 1.0M
20260504T06Z_MSC_RDPS_WindGust-Min_AGL-10m_RLatLon0.09_PT059H.grib2 2026-05-04 08:57 1.0M
20260504T06Z_MSC_RDPS_WindGust_AGL-10m_RLatLon0.09_PT059H.grib2 2026-05-04 08:57 1.0M
20260504T06Z_MSC_RDPS_WindSpeed_AGL-10m_RLatLon0.09_PT059H.grib2 2026-05-04 08:57 850K
20260504T06Z_MSC_RDPS_WindSpeed_AGL-120m_RLatLon0.09_PT059H.grib2 2026-05-04 08:57 542K
20260504T06Z_MSC_RDPS_WindSpeed_AGL-40m_RLatLon0.09_PT059H.grib2 2026-05-04 08:57 546K
20260504T06Z_MSC_RDPS_WindSpeed_AGL-80m_RLatLon0.09_PT059H.grib2 2026-05-04 08:57 543K
20260504T06Z_MSC_RDPS_WindSpeed_IsbL-0001_RLatLon0.09_PT059H.grib2 2026-05-04 08:57 254K
20260504T06Z_MSC_RDPS_WindSpeed_IsbL-0005_RLatLon0.09_PT059H.grib2 2026-05-04 08:57 292K
20260504T06Z_MSC_RDPS_WindSpeed_IsbL-0010_RLatLon0.09_PT059H.grib2 2026-05-04 08:57 304K
20260504T06Z_MSC_RDPS_WindSpeed_IsbL-0020_RLatLon0.09_PT059H.grib2 2026-05-04 08:57 422K
20260504T06Z_MSC_RDPS_WindSpeed_IsbL-0030_RLatLon0.09_PT059H.grib2 2026-05-04 08:57 320K
20260504T06Z_MSC_RDPS_WindSpeed_IsbL-0050_RLatLon0.09_PT059H.grib2 2026-05-04 08:57 350K
20260504T06Z_MSC_RDPS_WindSpeed_IsbL-0100_RLatLon0.09_PT059H.grib2 2026-05-04 08:57 472K
20260504T06Z_MSC_RDPS_WindSpeed_IsbL-0150_RLatLon0.09_PT059H.grib2 2026-05-04 08:57 374K
20260504T06Z_MSC_RDPS_WindSpeed_IsbL-0175_RLatLon0.09_PT059H.grib2 2026-05-04 08:57 421K
20260504T06Z_MSC_RDPS_WindSpeed_IsbL-0200_RLatLon0.09_PT059H.grib2 2026-05-04 08:57 435K
20260504T06Z_MSC_RDPS_WindSpeed_IsbL-0225_RLatLon0.09_PT059H.grib2 2026-05-04 08:57 438K
20260504T06Z_MSC_RDPS_WindSpeed_IsbL-0250_RLatLon0.09_PT059H.grib2 2026-05-04 08:57 440K
20260504T06Z_MSC_RDPS_WindSpeed_IsbL-0275_RLatLon0.09_PT059H.grib2 2026-05-04 08:57 459K
20260504T06Z_MSC_RDPS_WindSpeed_IsbL-0300_RLatLon0.09_PT059H.grib2 2026-05-04 08:57 460K
20260504T06Z_MSC_RDPS_WindSpeed_IsbL-0350_RLatLon0.09_PT059H.grib2 2026-05-04 08:57 476K
20260504T06Z_MSC_RDPS_WindSpeed_IsbL-0400_RLatLon0.09_PT059H.grib2 2026-05-04 08:57 480K
20260504T06Z_MSC_RDPS_WindSpeed_IsbL-0450_RLatLon0.09_PT059H.grib2 2026-05-04 08:57 462K
20260504T06Z_MSC_RDPS_WindSpeed_IsbL-0500_RLatLon0.09_PT059H.grib2 2026-05-04 08:57 458K
20260504T06Z_MSC_RDPS_WindSpeed_IsbL-0550_RLatLon0.09_PT059H.grib2 2026-05-04 08:57 574K
20260504T06Z_MSC_RDPS_WindSpeed_IsbL-0600_RLatLon0.09_PT059H.grib2 2026-05-04 08:57 582K
20260504T06Z_MSC_RDPS_WindSpeed_IsbL-0650_RLatLon0.09_PT059H.grib2 2026-05-04 08:57 648K
20260504T06Z_MSC_RDPS_WindSpeed_IsbL-0700_RLatLon0.09_PT059H.grib2 2026-05-04 08:57 674K
20260504T06Z_MSC_RDPS_WindSpeed_IsbL-0750_RLatLon0.09_PT059H.grib2 2026-05-04 08:57 705K
20260504T06Z_MSC_RDPS_WindSpeed_IsbL-0800_RLatLon0.09_PT059H.grib2 2026-05-04 08:57 756K
20260504T06Z_MSC_RDPS_WindSpeed_IsbL-0850_RLatLon0.09_PT059H.grib2 2026-05-04 08:57 823K
20260504T06Z_MSC_RDPS_WindSpeed_IsbL-0875_RLatLon0.09_PT059H.grib2 2026-05-04 08:57 847K
20260504T06Z_MSC_RDPS_WindSpeed_IsbL-0900_RLatLon0.09_PT059H.grib2 2026-05-04 08:57 863K
20260504T06Z_MSC_RDPS_WindSpeed_IsbL-0925_RLatLon0.09_PT059H.grib2 2026-05-04 08:57 872K
20260504T06Z_MSC_RDPS_WindSpeed_IsbL-0950_RLatLon0.09_PT059H.grib2 2026-05-04 08:57 870K
20260504T06Z_MSC_RDPS_WindSpeed_IsbL-0970_RLatLon0.09_PT059H.grib2 2026-05-04 08:57 867K
20260504T06Z_MSC_RDPS_WindSpeed_IsbL-0985_RLatLon0.09_PT059H.grib2 2026-05-04 08:57 861K
20260504T06Z_MSC_RDPS_WindSpeed_IsbL-1000_RLatLon0.09_PT059H.grib2 2026-05-04 08:57 859K
20260504T06Z_MSC_RDPS_WindSpeed_IsbL-1015_RLatLon0.09_PT059H.grib2 2026-05-04 08:57 850K
20260504T06Z_MSC_RDPS_WindU_AGL-10m_RLatLon0.09_PT059H.grib2 2026-05-04 08:57 440K
20260504T06Z_MSC_RDPS_WindU_AGL-120m_RLatLon0.09_PT059H.grib2 2026-05-04 08:57 422K
20260504T06Z_MSC_RDPS_WindU_AGL-40m_RLatLon0.09_PT059H.grib2 2026-05-04 08:57 543K
20260504T06Z_MSC_RDPS_WindU_AGL-80m_RLatLon0.09_PT059H.grib2 2026-05-04 08:57 423K
20260504T06Z_MSC_RDPS_WindU_IsbL-0001_RLatLon0.09_PT059H.grib2 2026-05-04 08:57 245K
20260504T06Z_MSC_RDPS_WindU_IsbL-0005_RLatLon0.09_PT059H.grib2 2026-05-04 08:57 283K
20260504T06Z_MSC_RDPS_WindU_IsbL-0010_RLatLon0.09_PT059H.grib2 2026-05-04 08:57 296K
20260504T06Z_MSC_RDPS_WindU_IsbL-0020_RLatLon0.09_PT059H.grib2 2026-05-04 08:57 316K
20260504T06Z_MSC_RDPS_WindU_IsbL-0030_RLatLon0.09_PT059H.grib2 2026-05-04 08:57 352K
20260504T06Z_MSC_RDPS_WindU_IsbL-0050_RLatLon0.09_PT059H.grib2 2026-05-04 08:57 379K
20260504T06Z_MSC_RDPS_WindU_IsbL-0100_RLatLon0.09_PT059H.grib2 2026-05-04 08:57 427K
20260504T06Z_MSC_RDPS_WindU_IsbL-0150_RLatLon0.09_PT059H.grib2 2026-05-04 08:57 391K
20260504T06Z_MSC_RDPS_WindU_IsbL-0175_RLatLon0.09_PT059H.grib2 2026-05-04 08:57 413K
20260504T06Z_MSC_RDPS_WindU_IsbL-0200_RLatLon0.09_PT059H.grib2 2026-05-04 08:57 330K
20260504T06Z_MSC_RDPS_WindU_IsbL-0225_RLatLon0.09_PT059H.grib2 2026-05-04 08:57 333K
20260504T06Z_MSC_RDPS_WindU_IsbL-0250_RLatLon0.09_PT059H.grib2 2026-05-04 08:57 333K
20260504T06Z_MSC_RDPS_WindU_IsbL-0275_RLatLon0.09_PT059H.grib2 2026-05-04 08:57 347K
20260504T06Z_MSC_RDPS_WindU_IsbL-0300_RLatLon0.09_PT059H.grib2 2026-05-04 08:57 347K
20260504T06Z_MSC_RDPS_WindU_IsbL-0350_RLatLon0.09_PT059H.grib2 2026-05-04 08:57 360K
20260504T06Z_MSC_RDPS_WindU_IsbL-0400_RLatLon0.09_PT059H.grib2 2026-05-04 08:57 466K
20260504T06Z_MSC_RDPS_WindU_IsbL-0450_RLatLon0.09_PT059H.grib2 2026-05-04 08:57 466K
20260504T06Z_MSC_RDPS_WindU_IsbL-0500_RLatLon0.09_PT059H.grib2 2026-05-04 08:57 464K
20260504T06Z_MSC_RDPS_WindU_IsbL-0550_RLatLon0.09_PT059H.grib2 2026-05-04 08:57 462K
20260504T06Z_MSC_RDPS_WindU_IsbL-0600_RLatLon0.09_PT059H.grib2 2026-05-04 08:57 470K
20260504T06Z_MSC_RDPS_WindU_IsbL-0650_RLatLon0.09_PT059H.grib2 2026-05-04 08:57 490K
20260504T06Z_MSC_RDPS_WindU_IsbL-0700_RLatLon0.09_PT059H.grib2 2026-05-04 08:57 512K
20260504T06Z_MSC_RDPS_WindU_IsbL-0750_RLatLon0.09_PT059H.grib2 2026-05-04 08:57 539K
20260504T06Z_MSC_RDPS_WindU_IsbL-0800_RLatLon0.09_PT059H.grib2 2026-05-04 08:57 582K
20260504T06Z_MSC_RDPS_WindU_IsbL-0850_RLatLon0.09_PT059H.grib2 2026-05-04 08:57 629K
20260504T06Z_MSC_RDPS_WindU_IsbL-0875_RLatLon0.09_PT059H.grib2 2026-05-04 08:57 657K
20260504T06Z_MSC_RDPS_WindU_IsbL-0900_RLatLon0.09_PT059H.grib2 2026-05-04 08:57 668K
20260504T06Z_MSC_RDPS_WindU_IsbL-0925_RLatLon0.09_PT059H.grib2 2026-05-04 08:57 674K
20260504T06Z_MSC_RDPS_WindU_IsbL-0950_RLatLon0.09_PT059H.grib2 2026-05-04 08:57 663K
20260504T06Z_MSC_RDPS_WindU_IsbL-0970_RLatLon0.09_PT059H.grib2 2026-05-04 08:57 659K
20260504T06Z_MSC_RDPS_WindU_IsbL-0985_RLatLon0.09_PT059H.grib2 2026-05-04 08:57 658K
20260504T06Z_MSC_RDPS_WindU_IsbL-1000_RLatLon0.09_PT059H.grib2 2026-05-04 08:57 657K
20260504T06Z_MSC_RDPS_WindU_IsbL-1015_RLatLon0.09_PT059H.grib2 2026-05-04 08:57 792K
20260504T06Z_MSC_RDPS_WindV_AGL-10m_RLatLon0.09_PT059H.grib2 2026-05-04 08:57 437K
20260504T06Z_MSC_RDPS_WindV_AGL-120m_RLatLon0.09_PT059H.grib2 2026-05-04 08:57 537K
20260504T06Z_MSC_RDPS_WindV_AGL-40m_RLatLon0.09_PT059H.grib2 2026-05-04 08:57 540K
20260504T06Z_MSC_RDPS_WindV_AGL-80m_RLatLon0.09_PT059H.grib2 2026-05-04 08:57 538K
20260504T06Z_MSC_RDPS_WindV_IsbL-0001_RLatLon0.09_PT059H.grib2 2026-05-04 08:57 296K
20260504T06Z_MSC_RDPS_WindV_IsbL-0005_RLatLon0.09_PT059H.grib2 2026-05-04 08:57 286K
20260504T06Z_MSC_RDPS_WindV_IsbL-0010_RLatLon0.09_PT059H.grib2 2026-05-04 08:57 299K
20260504T06Z_MSC_RDPS_WindV_IsbL-0020_RLatLon0.09_PT059H.grib2 2026-05-04 08:57 319K
20260504T06Z_MSC_RDPS_WindV_IsbL-0030_RLatLon0.09_PT059H.grib2 2026-05-04 08:57 317K
20260504T06Z_MSC_RDPS_WindV_IsbL-0050_RLatLon0.09_PT059H.grib2 2026-05-04 08:57 343K
20260504T06Z_MSC_RDPS_WindV_IsbL-0100_RLatLon0.09_PT059H.grib2 2026-05-04 08:57 327K
20260504T06Z_MSC_RDPS_WindV_IsbL-0150_RLatLon0.09_PT059H.grib2 2026-05-04 08:57 387K
20260504T06Z_MSC_RDPS_WindV_IsbL-0175_RLatLon0.09_PT059H.grib2 2026-05-04 08:57 411K
20260504T06Z_MSC_RDPS_WindV_IsbL-0200_RLatLon0.09_PT059H.grib2 2026-05-04 08:57 329K
20260504T06Z_MSC_RDPS_WindV_IsbL-0225_RLatLon0.09_PT059H.grib2 2026-05-04 08:57 331K
20260504T06Z_MSC_RDPS_WindV_IsbL-0250_RLatLon0.09_PT059H.grib2 2026-05-04 08:57 332K
20260504T06Z_MSC_RDPS_WindV_IsbL-0275_RLatLon0.09_PT059H.grib2 2026-05-04 08:57 347K
20260504T06Z_MSC_RDPS_WindV_IsbL-0300_RLatLon0.09_PT059H.grib2 2026-05-04 08:57 372K
20260504T06Z_MSC_RDPS_WindV_IsbL-0350_RLatLon0.09_PT059H.grib2 2026-05-04 08:57 384K
20260504T06Z_MSC_RDPS_WindV_IsbL-0400_RLatLon0.09_PT059H.grib2 2026-05-04 08:57 363K
20260504T06Z_MSC_RDPS_WindV_IsbL-0450_RLatLon0.09_PT059H.grib2 2026-05-04 08:57 362K
20260504T06Z_MSC_RDPS_WindV_IsbL-0500_RLatLon0.09_PT059H.grib2 2026-05-04 08:57 462K
20260504T06Z_MSC_RDPS_WindV_IsbL-0550_RLatLon0.09_PT059H.grib2 2026-05-04 08:57 460K
20260504T06Z_MSC_RDPS_WindV_IsbL-0600_RLatLon0.09_PT059H.grib2 2026-05-04 08:57 467K
20260504T06Z_MSC_RDPS_WindV_IsbL-0650_RLatLon0.09_PT059H.grib2 2026-05-04 08:57 487K
20260504T06Z_MSC_RDPS_WindV_IsbL-0700_RLatLon0.09_PT059H.grib2 2026-05-04 08:57 508K
20260504T06Z_MSC_RDPS_WindV_IsbL-0750_RLatLon0.09_PT059H.grib2 2026-05-04 08:57 521K
20260504T06Z_MSC_RDPS_WindV_IsbL-0800_RLatLon0.09_PT059H.grib2 2026-05-04 08:57 566K
20260504T06Z_MSC_RDPS_WindV_IsbL-0850_RLatLon0.09_PT059H.grib2 2026-05-04 08:57 624K
20260504T06Z_MSC_RDPS_WindV_IsbL-0875_RLatLon0.09_PT059H.grib2 2026-05-04 08:57 647K
20260504T06Z_MSC_RDPS_WindV_IsbL-0900_RLatLon0.09_PT059H.grib2 2026-05-04 08:57 659K
20260504T06Z_MSC_RDPS_WindV_IsbL-0925_RLatLon0.09_PT059H.grib2 2026-05-04 08:57 666K
20260504T06Z_MSC_RDPS_WindV_IsbL-0950_RLatLon0.09_PT059H.grib2 2026-05-04 08:57 662K
20260504T06Z_MSC_RDPS_WindV_IsbL-0970_RLatLon0.09_PT059H.grib2 2026-05-04 08:57 658K
20260504T06Z_MSC_RDPS_WindV_IsbL-0985_RLatLon0.09_PT059H.grib2 2026-05-04 08:57 798K
20260504T06Z_MSC_RDPS_WindV_IsbL-1000_RLatLon0.09_PT059H.grib2 2026-05-04 08:57 794K
20260504T06Z_MSC_RDPS_WindV_IsbL-1015_RLatLon0.09_PT059H.grib2 2026-05-04 08:57 833K